[[{"header":{"parameterUnit":"m.s-1","parameterCategory":1,"la1":30.2991,"la2":30.254,"lo1":-89.0895,"lo2":-89.0444,"dy":0.0017,"dx":0.0017,"nx":28,"ny":28,"refTime":"2024-09-01T21:00:00:Z","depth":0,"parameterNumber":2,"parameterNumberName":"U-component_of_WINDS"},"data":[0,0,0,0,0,0,0,0,0,0,0,0,0,0,0,0,0,0,0,0,0,0,0,0,0,0,0,0,0,0,0,0,0,0,0,0,0,0,0,0,0,0,0,0,0,0,0,0,0,0,0,0,0,0,0,0,0,0,-1.9955,-1.9956,0,-2.0016,-2.0016,-2.0017,-1.9959,-1.9956,-1.9954,-1.9952,-2.0017,-2.0021,-2.0025,0,0,0,0,0,0,0,0,0,0,0,0,0,-1.9791,-1.9794,-1.9955,-1.9956,-1.9957,-2.0016,-2.0016,-2.0017,-1.9959,-1.9956,-1.9953,-1.9951,-2.0016,-2.002,-2.0025,0,0,0,0,0,0,0,0,0,0,0,0,0,-1.9858,-1.9795,-1.9955,-1.9935,-1.9933,-2.0015,-2.0017,-2.0018,-1.996,-1.9956,-1.9953,-1.9949,-2.0014,-2.002,-2.0026,-2.0132,0,0,-2.0043,-2.0046,0,0,0,0,0,0,0,0,-1.9854,-1.9864,-1.9937,-1.9936,-1.9935,-1.9976,-1.9982,-2.0056,-1.996,-1.995,-1.9952,-1.9948,-2.0006,-2.0013,-2.0032,-2.0135,-2.0138,-2.0044,-2.0048,-2.005,-2.0052,0,0,0,0,0,0,0,-1.985,-1.9861,-1.9979,-1.9938,-1.9937,-1.9923,-1.9929,-1.9996,-1.9997,-1.995,-1.9946,-1.9954,-2.0005,-2.0026,-2.0033,-2.0139,-2.0044,-2.0049,-2.0053,-2.0055,-2.0333,-2.0336,0,0,0,0,0,0,-1.9847,-1.9858,-1.9977,-1.9981,-1.9885,-1.9929,-1.9935,-1.9966,-1.9996,-1.9997,-1.9957,-1.9951,-2.0018,-2.0026,-2.0035,-2.0163,-2.005,-2.0056,-2.0059,-2.0329,-2.0333,-2.0338,0,0,0,0,0,0,-1.9844,-1.9858,-1.9975,-1.9918,-1.9932,-1.9935,-1.9971,-1.9969,-1.999,-2.0001,-2.0001,-1.9978,-2.0015,-2.0027,-2.0108,-2.0164,-2.0058,-2.0064,-2.0324,-2.033,-2.0336,-2.0418,0,0,0,0,0,0,-1.9839,-1.9857,-1.9897,-1.992,-1.9935,-2.0047,-1.9974,-1.9973,-2.0,-1.9993,-2.0021,-2.0022,-2.0014,-2.01,-2.0114,-2.017,-2.0068,-2.0319,-2.0327,-2.0334,-2.0411,-2.0426,-2.0439,0,0,0,0,0,-1.9833,-1.9919,-1.99,-1.9915,-1.9985,-2.005,-2.0059,-2.0047,-2.0005,-2.0046,-2.0052,-2.0022,-2.0155,-2.0109,-2.0124,-2.0183,-2.0316,-2.0325,-2.0333,-2.0404,-2.0423,-2.0439,0,0,0,0,0,0,-1.9905,-1.9922,-1.9901,-1.9995,-2.0022,-2.004,-2.0092,-2.0067,-2.0106,-2.0098,-2.0081,-2.0088,-2.0175,-2.0186,-2.0134,-2.0287,-2.0229,-2.0241,-2.0277,-2.0295,-2.031,-2.0307,-2.0073,0,0,0,0,0,-1.9931,-1.9982,-1.9994,-2.0076,-2.009,-2.0089,-2.0116,-2.0104,-2.0131,-2.0142,-2.0155,-2.0183,-2.0231,-2.0263,-2.0308,-2.0411,-2.0417,-2.0459,-2.0473,-2.0485,-2.0497,-2.0553,-2.0572,-2.0366,-2.0366,-2.0366,0,0,-1.9987,-2.0003,-2.0036,-2.0091,-2.011,-2.0164,-2.0099,-2.0158,-2.0198,-2.0151,-2.023,-2.0239,-2.0269,-2.0362,-2.0404,-2.0375,-2.0554,-2.0496,-2.0505,-2.0511,-2.0564,-2.0583,-2.0601,-2.0372,-2.0371,-2.037,0,0,-2.0117,-2.0133,-2.0204,-2.0224,-2.0253,-2.0251,-2.0268,-2.0289,-2.0294,-2.0372,-2.0338,-2.0385,-2.0468,-2.0491,-2.0514,-2.065,-2.0624,-2.0665,-2.0742,-2.0797,-2.0813,-2.0828,-2.0879,-2.0897,-2.0676,-2.0676,-2.0676,0,-2.0184,-2.0263,-2.0244,-2.0306,-2.0332,-2.029,-2.0363,-2.0383,-2.0425,-2.0445,-2.041,-2.0514,-2.0531,-2.0629,-2.0662,-2.0681,-2.0701,-2.0664,-2.0812,-2.0826,-2.084,-2.0888,-2.0907,-2.0681,-2.0681,-2.068,-2.068,0,-2.0344,-2.0399,-2.0453,-2.0494,-2.0525,-2.0593,-2.0585,-2.0619,-2.0603,-2.0604,-2.0684,-2.0702,-2.0751,-2.0772,-2.0758,-2.0869,-2.085,-2.0814,-2.0756,-2.0865,-2.091,-2.0928,-2.0688,-2.0687,-2.0685,-2.0684,0,0,-2.0525,-2.0553,-2.0573,-2.0592,-2.0619,-2.0662,-2.0726,-2.0772,-2.0803,-2.0832,-2.0887,-2.0957,-2.0924,-2.095,-2.0937,-2.0985,-2.1094,-2.0943,-2.0944,-2.0973,-2.122,-2.1249,-2.127,-2.1075,-2.1078,-2.1081,-2.1218,0,-2.0658,-2.077,-2.0754,-2.0863,-2.0914,-2.0873,-2.093,-2.0953,-2.0956,-2.1,-2.1002,-2.1054,-2.1005,-2.102,-2.1065,-2.1071,-2.1144,-2.1061,-2.1128,-2.1131,-2.1126,-2.1294,-2.1325,-2.1453,-2.1235,-2.1238,-2.124,0,-2.0829,-2.0864,-2.0977,-2.0997,-2.1017,-2.1069,-2.1109,-2.1151,-2.1177,-2.1175,-2.1203,-2.1181,-2.1247,-2.1183,-2.1274,-2.1218,-2.1244,-2.1251,-2.1255,-2.1264,-2.1195,-2.131,-2.1494,-2.1514,-2.1268,-2.1265,-2.1263,0,-2.0952,-2.1028,-2.1105,-2.1122,-2.1146,-2.1183,-2.1194,-2.1216,-2.1245,-2.128,-2.1298,-2.1341,-2.1365,-2.1399,-2.1389,-2.1344,-2.1483,-2.1419,-2.1485,-2.1486,-2.152,-2.1518,-2.1714,-2.1531,-2.1531,-2.153,-2.153,0,-2.1105,-2.1176,-2.1161,-2.121,-2.1289,-2.1269,-2.1348,-2.1355,-2.1374,-2.1423,-2.139,-2.1437,-2.142,-2.1466,-2.1459,-2.1536,-2.1546,-2.1548,-2.1546,-2.1553,-2.1554,-2.1573,-2.1565,-2.1535,-2.1534,-2.1533,-2.1532,0,-2.1258,-2.1251,-2.1333,-2.1348,-2.1353,-2.1411,-2.1424,-2.147,-2.1468,-2.1531,-2.1545,-2.1543,-2.1596,-2.1588,-2.1647,-2.1642,-2.1739,-2.1724,-2.1731,-2.1729,-2.1797,-2.1792,-2.2014,-2.2043,-2.1839,-2.184,-2.1842,0,-2.1358,-2.1412,-2.1432,-2.1462,-2.1476,-2.1525,-2.1554,-2.1536,-2.1567,-2.1599,-2.1641,-2.169,-2.1729,-2.1815,-2.182,-2.1864,-2.1852,-2.1927,-2.1859,-2.1865,-2.1857,-2.1855,-2.1862,-2.1942,-2.1944,-2.1946,-2.1948,0,-2.1536,-2.1529,-2.1571,-2.1612,-2.1646,-2.1678,-2.1706,-2.1732,-2.1717,-2.1754,-2.1806,-2.1836,-2.1895,-2.1945,-2.1987,-2.1999,-2.1972,-2.1968,-2.1986,-2.1997,-2.1999,-2.2001,-2.1771,-2.1964,-2.1963,-2.1961,-2.196,-2.196,-2.1668,-2.1714,-2.1736,-2.1784,-2.1802,-2.1829,-2.1872,-2.1875,-2.1919,-2.1965,-2.1951,-2.2012,-2.2035,-2.2088,-2.2104,-2.2152,-2.2125,-2.215,-2.2158,-2.2165,-2.2175,-2.1988,-2.2159,-2.2158,-2.2158,-2.2157,-2.2157,0,-2.1847,-2.1858,-2.1902,-2.1942,-2.198,-2.1947,-2.1976,-2.201,-2.2064,-2.2087,-2.2125,-2.2186,-2.2233,-2.2241,-2.2286,-2.2323,-2.2311,-2.2335,-2.2335,-2.2338,-2.2195,-2.2176,-2.2344,-2.2344,-2.2344,-2.2344,-2.2344,-2.2344,-2.1945,-2.2023,-2.2018,-2.2104,-2.2114,-2.2173,-2.2192,-2.2217,-2.2235,-2.2304,-2.2343,-2.2347,-2.2364,-2.241,-2.2452,-2.2453,-2.2473,-2.2503,-2.2499,-2.2367,-2.2348,-2.233,-2.2313,-2.2506,-2.2507,-2.2639,-2.264,-2.2641]},{"header":{"parameterUnit":"m.s-1","parameterCategory":1,"la1":30.2991,"la2":30.254,"lo1":-89.0895,"lo2":-89.0444,"dy":0.0017,"dx":0.0017,"nx":28,"ny":28,"refTime":"2024-09-01T21:00:00:Z","depth":0,"parameterNumber":3,"parameterNumberName":"V-component_of_WINDS"},"data":[0,0,0,0,0,0,0,0,0,0,0,0,0,0,0,0,0,0,0,0,0,0,0,0,0,0,0,0,0,0,0,0,0,0,0,0,0,0,0,0,0,0,0,0,0,0,0,0,0,0,0,0,0,0,0,0,0,0,-3.7583,-3.7583,0,-3.7605,-3.7605,-3.7605,-3.7557,-3.7555,-3.7554,-3.7552,-3.7574,-3.7576,-3.7578,0,0,0,0,0,0,0,0,0,0,0,0,0,-3.7499,-3.75,-3.7583,-3.7583,-3.7583,-3.7605,-3.7605,-3.7605,-3.7557,-3.7555,-3.7553,-3.7551,-3.7574,-3.7576,-3.7579,0,0,0,0,0,0,0,0,0,0,0,0,0,-3.7529,-3.7501,-3.7583,-3.7562,-3.756,-3.7604,-3.7605,-3.7605,-3.7557,-3.7555,-3.7553,-3.7551,-3.7573,-3.7576,-3.7579,-3.7644,0,0,-3.7588,-3.759,0,0,0,0,0,0,0,0,-3.7528,-3.7532,-3.7565,-3.7563,-3.7562,-3.7576,-3.7583,-3.7618,-3.7558,-3.7559,-3.7552,-3.7549,-3.7577,-3.7579,-3.7588,-3.7645,-3.7646,-3.7589,-3.759,-3.7592,-3.7593,0,0,0,0,0,0,0,-3.7526,-3.7531,-3.7591,-3.7565,-3.7563,-3.7551,-3.7553,-3.759,-3.758,-3.7558,-3.7555,-3.7558,-3.7575,-3.7586,-3.7589,-3.7647,-3.7588,-3.7591,-3.7593,-3.7594,-3.7756,-3.7758,0,0,0,0,0,0,-3.7526,-3.753,-3.7591,-3.7592,-3.7539,-3.7554,-3.7556,-3.7573,-3.758,-3.7579,-3.756,-3.7556,-3.7582,-3.7585,-3.7589,-3.7665,-3.7592,-3.7595,-3.7596,-3.7754,-3.7757,-3.7759,0,0,0,0,0,0,-3.7525,-3.7532,-3.759,-3.756,-3.7566,-3.7558,-3.7578,-3.7575,-3.7585,-3.7581,-3.7579,-3.7572,-3.758,-3.7585,-3.763,-3.7665,-3.7596,-3.7599,-3.7751,-3.7755,-3.7758,-3.7817,0,0,0,0,0,0,-3.7522,-3.7532,-3.7557,-3.7561,-3.7568,-3.7631,-3.758,-3.7577,-3.7591,-3.7585,-3.7592,-3.7591,-3.7578,-3.7626,-3.7634,-3.7668,-3.7601,-3.7748,-3.7752,-3.7757,-3.7812,-3.7823,-3.7831,0,0,0,0,0,-3.752,-3.7573,-3.7559,-3.7566,-3.76,-3.7634,-3.7638,-3.7622,-3.7594,-3.7619,-3.7616,-3.7591,-3.766,-3.7631,-3.7639,-3.7675,-3.7745,-3.7751,-3.7757,-3.7808,-3.7821,-3.7831,0,0,0,0,0,0,-3.7574,-3.7574,-3.7557,-3.7614,-3.7624,-3.7625,-3.7656,-3.7636,-3.7655,-3.7649,-3.7629,-3.7631,-3.768,-3.7682,-3.765,-3.7737,-3.7698,-3.7705,-3.7734,-3.7746,-3.7756,-3.7754,-3.7604,0,0,0,0,0,-3.7593,-3.7621,-3.7619,-3.7669,-3.7675,-3.7665,-3.7679,-3.7666,-3.7676,-3.768,-3.768,-3.769,-3.7714,-3.773,-3.7752,-3.7812,-3.7812,-3.7841,-3.785,-3.7858,-3.7865,-3.7895,-3.7907,-3.7778,-3.7778,-3.7777,0,0,-3.7632,-3.7635,-3.7654,-3.768,-3.7686,-3.7715,-3.7669,-3.7702,-3.7722,-3.7685,-3.7727,-3.7728,-3.7738,-3.7791,-3.7814,-3.7794,-3.79,-3.7865,-3.7872,-3.7874,-3.7902,-3.7914,-3.7925,-3.7781,-3.7781,-3.778,0,0,-3.7717,-3.7723,-3.7764,-3.7771,-3.7781,-3.7774,-3.7784,-3.7788,-3.7787,-3.7829,-3.7801,-3.7825,-3.7867,-3.7875,-3.7884,-3.7971,-3.7948,-3.7978,-3.8028,-3.8058,-3.8068,-3.8077,-3.8106,-3.8117,-3.7985,-3.7985,-3.7985,0,-3.7764,-3.7807,-3.7789,-3.7822,-3.7834,-3.7801,-3.7842,-3.785,-3.7866,-3.7875,-3.7852,-3.7903,-3.7908,-3.7961,-3.7982,-3.7991,-3.8001,-3.7977,-3.8068,-3.8077,-3.8085,-3.8112,-3.8124,-3.7989,-3.7988,-3.7988,-3.7987,0,-3.7863,-3.7893,-3.7925,-3.7941,-3.7956,-3.7994,-3.7981,-3.7998,-3.7984,-3.7979,-3.8021,-3.8025,-3.8047,-3.8058,-3.8045,-3.8109,-3.8096,-3.8071,-3.8031,-3.8101,-3.8126,-3.8137,-3.7994,-3.7992,-3.7991,-3.799,0,0,-3.7985,-3.7989,-3.8001,-3.8007,-3.8014,-3.8036,-3.8072,-3.8092,-3.8107,-3.8119,-3.8148,-3.8183,-3.8159,-3.817,-3.8157,-3.8183,-3.8249,-3.8155,-3.8154,-3.8171,-3.8319,-3.8336,-3.8349,-3.8234,-3.8236,-3.8238,-3.8317,0,-3.8068,-3.8128,-3.8112,-3.8172,-3.8198,-3.8166,-3.8197,-3.8205,-3.82,-3.8222,-3.8217,-3.8242,-3.821,-3.8215,-3.824,-3.8236,-3.8278,-3.823,-3.826,-3.8261,-3.8257,-3.8363,-3.8382,-3.8457,-3.8327,-3.8329,-3.833,0,-3.8173,-3.8188,-3.8251,-3.8252,-3.8262,-3.829,-3.8306,-3.8327,-3.8335,-3.833,-3.8341,-3.8322,-3.8356,-3.8316,-3.8362,-3.8329,-3.834,-3.834,-3.8343,-3.8344,-3.8299,-3.8366,-3.848,-3.8491,-3.8346,-3.8345,-3.8344,0,-3.8254,-3.829,-3.8331,-3.8337,-3.8341,-3.836,-3.8363,-3.8368,-3.838,-3.8394,-3.8402,-3.8421,-3.843,-3.8445,-3.8431,-3.8403,-3.8478,-3.8437,-3.8474,-3.8475,-3.8491,-3.849,-3.8608,-3.85,-3.85,-3.85,-3.85,0,-3.8348,-3.8387,-3.8367,-3.8393,-3.8435,-3.8416,-3.8458,-3.8457,-3.8461,-3.8485,-3.8459,-3.8482,-3.8463,-3.8484,-3.8473,-3.8512,-3.8517,-3.8513,-3.851,-3.8515,-3.8515,-3.8521,-3.8515,-3.8503,-3.8502,-3.8502,-3.8501,0,-3.8445,-3.8433,-3.8476,-3.8474,-3.8475,-3.8506,-3.8505,-3.8528,-3.8521,-3.8552,-3.8558,-3.8548,-3.8571,-3.8559,-3.8584,-3.8576,-3.8626,-3.8616,-3.8623,-3.862,-3.8657,-3.8653,-3.8782,-3.8797,-3.8681,-3.8682,-3.8683,0,-3.8505,-3.8534,-3.8535,-3.8549,-3.8553,-3.8576,-3.8588,-3.857,-3.8583,-3.8593,-3.8615,-3.8636,-3.8651,-3.869,-3.8685,-3.8703,-3.8693,-3.8736,-3.8695,-3.8699,-3.8691,-3.8689,-3.8691,-3.8744,-3.8746,-3.8747,-3.8748,0,-3.8613,-3.8605,-3.8623,-3.8639,-3.8654,-3.8666,-3.8676,-3.8689,-3.8671,-3.8687,-3.871,-3.8723,-3.8747,-3.8768,-3.8783,-3.8785,-3.8763,-3.8761,-3.877,-3.8775,-3.8777,-3.8775,-3.8644,-3.8758,-3.8757,-3.8756,-3.8756,-3.8755,-3.8692,-3.8716,-3.8719,-3.874,-3.8745,-3.8755,-3.8775,-3.8771,-3.879,-3.8807,-3.8796,-3.8823,-3.8828,-3.8846,-3.885,-3.8871,-3.8853,-3.8867,-3.887,-3.8873,-3.8878,-3.8775,-3.8874,-3.8873,-3.8873,-3.8873,-3.8872,0,-3.8797,-3.8797,-3.8817,-3.883,-3.8846,-3.8824,-3.8833,-3.8848,-3.8872,-3.8878,-3.8894,-3.8919,-3.8939,-3.8935,-3.8952,-3.8969,-3.896,-3.8974,-3.8972,-3.8973,-3.8893,-3.8883,-3.8982,-3.8982,-3.8982,-3.8982,-3.8982,-3.8982,-3.8854,-3.8891,-3.8884,-3.8923,-3.8924,-3.8949,-3.8956,-3.8964,-3.8968,-3.8998,-3.9014,-3.9011,-3.9012,-3.9029,-3.9046,-3.9044,-3.9051,-3.9069,-3.9064,-3.8989,-3.8979,-3.8968,-3.8958,-3.9071,-3.9071,-3.9141,-3.9142,-3.9142]}]]